Tracking 29892 objects as of 21-Nov-2024
HD Live streaming from Space Station
objects crossing your sky now

TANCREDO 1


TANCREDO 1 is no longer on orbit
TANCREDO 1 is classified as:


NORAD ID: 41931
Int'l Code: 1998-067KT
Perigee: N/A
Apogee: N/A
Inclination: N/A
Period: N/A
Semi major axis: N/A
RCS: N/A
Launch date: November 20, 1998
Source: Japan (JPN)
Launch site: TYURATAM MISSILE AND SPACE COMPLEX (TTMTR)
Decay date: 2017-10-18

Uplink (MHz):
Downlink (MHz): 437.200
Beacon (MHz): 437.200
Mode: 1200bps AFSK CW
Call sign: PY0ETA
Status: Inactive

Your satellite tracking list
Your tracking list is empty




NASA's NSSDC Master Catalog

Two Line Element Set (TLE):
1 41931U 98067KT  17290.98270503  .14164078  12479-4  76733-3 0  9998
2 41931  51.6104 115.9004 0006182 280.1451  79.8879 16.42240901 42996
Source of the keplerian elements: Caltech